Time,TemperatureF,DewpointF,PressureIn,WindDirection,WindDirectionDegrees,WindSpeedMPH,WindSpeedGustMPH,Humidity,HourlyPrecipIn,Conditions,Clouds,dailyrainin,SoftwareType,DateUTC
2013-09-02 00:09:00,63.3,58.7,29.92,ENE,67,0.0,-999.0,85,-99.99,,,0.00,Acu-Link.com,2013-09-02 04:09:00,
2013-09-02 00:24:00,63.0,58.7,29.92,ENE,67,0.0,-999.0,86,-99.99,,,0.00,Acu-Link.com,2013-09-02 04:24:00,
2013-09-02 00:39:00,62.6,58.3,29.92,ENE,67,0.0,-999.0,86,-99.99,,,0.00,Acu-Link.com,2013-09-02 04:39:00,
2013-09-02 00:54:00,62.4,57.8,29.92,East,90,0.0,-999.0,85,-99.99,,,0.00,Acu-Link.com,2013-09-02 04:54:00,
2013-09-02 01:09:00,62.2,57.7,29.92,NE,45,0.0,-999.0,85,-99.99,,,0.00,Acu-Link.com,2013-09-02 05:09:00,
2013-09-02 01:25:00,62.1,57.5,29.92,NE,45,0.0,-999.0,85,-99.99,,,0.00,Acu-Link.com,2013-09-02 05:25:00,
2013-09-02 01:40:00,61.7,56.8,29.91,ENE,67,2.7,-999.0,84,-99.99,,,0.00,Acu-Link.com,2013-09-02 05:40:00,
2013-09-02 01:55:00,61.5,57.0,29.91,NE,45,0.0,-999.0,85,-99.99,,,0.00,Acu-Link.com,2013-09-02 05:55:00,
2013-09-02 02:10:00,61.0,57.4,29.92,North,0,0.0,-999.0,88,-99.99,,,0.00,Acu-Link.com,2013-09-02 06:10:00,
2013-09-02 02:26:00,59.2,58.6,29.92,ENE,67,2.7,-999.0,98,-99.99,,,0.01,Acu-Link.com,2013-09-02 06:26:00,
2013-09-02 02:41:00,58.5,57.9,29.89,NE,45,2.7,-999.0,98,-99.99,,,0.02,Acu-Link.com,2013-09-02 06:41:00,
2013-09-02 02:56:00,58.3,57.7,29.90,North,0,2.2,-999.0,98,-99.99,,,0.04,Acu-Link.com,2013-09-02 06:56:00,
2013-09-02 03:11:00,58.1,57.5,29.88,ENE,67,2.7,-999.0,98,-99.99,,,0.05,Acu-Link.com,2013-09-02 07:11:00,
2013-09-02 03:26:00,58.1,57.5,29.88,North,0,0.0,-999.0,98,-99.99,,,0.06,Acu-Link.com,2013-09-02 07:26:00,
2013-09-02 03:42:00,58.1,57.5,29.88,North,0,0.0,-999.0,98,-99.99,,,0.06,Acu-Link.com,2013-09-02 07:42:00,
2013-09-02 03:57:00,58.1,57.5,29.87,ENE,67,0.0,-999.0,98,-99.99,,,0.06,Acu-Link.com,2013-09-02 07:57:00,
2013-09-02 04:13:00,58.1,57.5,29.87,NE,45,0.0,-999.0,98,-99.99,,,0.06,Acu-Link.com,2013-09-02 08:13:00,
2013-09-02 04:28:00,58.1,57.5,29.87,NE,45,0.0,-999.0,98,-99.99,,,0.06,Acu-Link.com,2013-09-02 08:28:00,
2013-09-02 04:43:00,58.1,57.5,29.86,East,90,0.0,-999.0,98,-99.99,,,0.06,Acu-Link.com,2013-09-02 08:43:00,
2013-09-02 04:58:00,58.1,57.5,29.87,NE,45,0.0,-999.0,98,-99.99,,,0.06,Acu-Link.com,2013-09-02 08:58:00,
2013-09-02 05:13:00,58.1,57.5,29.86,NE,45,0.0,-999.0,98,-99.99,,,0.06,Acu-Link.com,2013-09-02 09:13:00,
2013-09-02 05:28:00,58.3,57.7,29.86,North,0,0.0,-999.0,98,-99.99,,,0.06,Acu-Link.com,2013-09-02 09:28:00,
2013-09-02 05:44:00,58.3,57.7,29.87,NNW,337,0.0,-999.0,98,-99.99,,,0.07,Acu-Link.com,2013-09-02 09:44:00,
2013-09-02 05:59:00,58.3,57.7,29.87,North,0,0.0,-999.0,98,-99.99,,,0.07,Acu-Link.com,2013-09-02 09:59:00,
2013-09-02 06:14:00,58.3,57.7,29.88,North,0,0.0,-999.0,98,-99.99,,,0.08,Acu-Link.com,2013-09-02 10:14:00,
2013-09-02 06:29:00,58.3,57.7,29.86,SSW,202,0.0,-999.0,98,-99.99,,,0.08,Acu-Link.com,2013-09-02 10:29:00,
2013-09-02 06:45:00,58.3,57.7,29.87,ENE,67,0.0,-999.0,98,-99.99,,,0.09,Acu-Link.com,2013-09-02 10:45:00,
2013-09-02 07:00:00,58.5,57.9,29.87,North,0,0.0,-999.0,98,-99.99,,,0.11,Acu-Link.com,2013-09-02 11:00:00,
2013-09-02 07:15:00,58.8,58.3,29.86,ENE,67,0.0,-999.0,98,-99.99,,,0.11,Acu-Link.com,2013-09-02 11:15:00,
2013-09-02 07:30:00,58.6,58.1,29.85,East,90,2.2,-999.0,98,-99.99,,,0.12,Acu-Link.com,2013-09-02 11:30:00,
2013-09-02 07:45:00,59.0,58.4,29.85,ESE,112,0.0,-999.0,98,-99.99,,,0.12,Acu-Link.com,2013-09-02 11:45:00,
2013-09-02 08:01:00,59.2,58.6,29.85,North,0,0.0,-999.0,98,-99.99,,,0.13,Acu-Link.com,2013-09-02 12:01:00,
2013-09-02 08:16:00,59.7,59.2,29.83,ENE,67,1.6,-999.0,98,-99.99,,,0.13,Acu-Link.com,2013-09-02 12:16:00,
2013-09-02 08:31:00,59.7,59.2,29.82,South,180,0.0,-999.0,98,-99.99,,,0.13,Acu-Link.com,2013-09-02 12:31:00,
2013-09-02 08:46:00,60.3,59.7,29.83,ENE,67,0.0,-999.0,98,-99.99,,,0.14,Acu-Link.com,2013-09-02 12:46:00,
2013-09-02 09:01:00,60.3,59.7,29.85,ENE,67,2.2,-999.0,98,-99.99,,,0.14,Acu-Link.com,2013-09-02 13:01:00,
2013-09-02 09:16:00,60.1,59.5,29.85,NE,45,0.0,-999.0,98,-99.99,,,0.15,Acu-Link.com,2013-09-02 13:16:00,
2013-09-02 09:32:00,60.3,59.7,29.86,ENE,67,0.0,-999.0,98,-99.99,,,0.15,Acu-Link.com,2013-09-02 13:32:00,
2013-09-02 09:47:00,60.6,60.1,29.85,ENE,67,0.0,-999.0,98,-99.99,,,0.15,Acu-Link.com,2013-09-02 13:47:00,
2013-09-02 10:02:00,60.6,60.1,29.85,ENE,67,0.0,-999.0,98,-99.99,,,0.17,Acu-Link.com,2013-09-02 14:02:00,
2013-09-02 10:17:00,61.2,60.6,29.85,North,0,0.0,-999.0,98,-99.99,,,0.17,Acu-Link.com,2013-09-02 14:17:00,
2013-09-02 10:32:00,61.3,60.8,29.85,NE,45,0.0,-999.0,98,-99.99,,,0.17,Acu-Link.com,2013-09-02 14:32:00,
2013-09-02 10:48:00,61.5,60.9,29.84,ENE,67,0.0,-999.0,98,-99.99,,,0.17,Acu-Link.com,2013-09-02 14:48:00,
2013-09-02 11:03:00,61.9,61.3,29.84,ENE,67,0.0,-999.0,98,-99.99,,,0.18,Acu-Link.com,2013-09-02 15:03:00,
2013-09-02 11:18:00,62.4,61.8,29.84,ENE,67,0.0,-999.0,98,-99.99,,,0.18,Acu-Link.com,2013-09-02 15:18:00,
2013-09-02 11:33:00,62.6,62.0,29.84,ENE,67,0.0,-999.0,98,-99.99,,,0.18,Acu-Link.com,2013-09-02 15:33:00,
2013-09-02 11:48:00,62.8,62.2,29.83,ENE,67,0.0,-999.0,98,-99.99,,,0.18,Acu-Link.com,2013-09-02 15:48:00,
2013-09-02 12:04:00,63.1,62.6,29.82,ENE,67,0.0,-999.0,98,-99.99,,,0.18,Acu-Link.com,2013-09-02 16:04:00,
2013-09-02 12:19:00,63.5,62.9,29.82,East,90,0.0,-999.0,98,-99.99,,,0.19,Acu-Link.com,2013-09-02 16:19:00,
2013-09-02 12:34:00,63.5,62.9,29.82,ESE,112,0.0,-999.0,98,-99.99,,,0.19,Acu-Link.com,2013-09-02 16:34:00,
2013-09-02 12:49:00,63.5,62.9,29.82,East,90,0.0,-999.0,98,-99.99,,,0.19,Acu-Link.com,2013-09-02 16:49:00,
2013-09-02 15:50:00,64.0,63.5,29.77,ENE,67,0.0,-999.0,98,-99.99,,,0.19,Acu-Link.com,2013-09-02 19:50:00,
2013-09-02 16:06:00,64.2,63.6,29.76,ENE,67,1.1,-999.0,98,-99.99,,,0.19,Acu-Link.com,2013-09-02 20:06:00,
2013-09-02 16:21:00,64.2,63.6,29.77,East,90,0.0,-999.0,98,-99.99,,,0.19,Acu-Link.com,2013-09-02 20:21:00,
2013-09-02 16:36:00,64.2,63.6,29.77,ENE,67,0.0,-999.0,98,-99.99,,,0.19,Acu-Link.com,2013-09-02 20:36:00,
2013-09-02 16:51:00,64.4,63.8,29.76,East,90,0.0,-999.0,98,-99.99,,,0.20,Acu-Link.com,2013-09-02 20:51:00,
2013-09-02 17:06:00,64.4,63.8,29.75,East,90,0.0,-999.0,98,-99.99,,,0.20,Acu-Link.com,2013-09-02 21:06:00,
2013-09-02 17:22:00,64.2,63.6,29.74,ENE,67,0.0,-999.0,98,-99.99,,,0.20,Acu-Link.com,2013-09-02 21:22:00,
2013-09-02 17:37:00,64.0,63.5,29.75,NE,45,0.0,-999.0,98,-99.99,,,0.20,Acu-Link.com,2013-09-02 21:37:00,
2013-09-02 17:52:00,63.7,63.1,29.76,ENE,67,0.0,-999.0,98,-99.99,,,0.20,Acu-Link.com,2013-09-02 21:52:00,
2013-09-02 18:07:00,63.5,62.9,29.77,East,90,0.0,-999.0,98,-99.99,,,0.20,Acu-Link.com,2013-09-02 22:07:00,
2013-09-02 18:22:00,63.3,62.7,29.76,East,90,0.0,-999.0,98,-99.99,,,0.20,Acu-Link.com,2013-09-02 22:22:00,
2013-09-02 18:38:00,63.0,62.4,29.75,SW,225,0.0,-999.0,98,-99.99,,,0.20,Acu-Link.com,2013-09-02 22:38:00,
2013-09-02 18:53:00,63.0,62.4,29.78,NE,45,0.0,-999.0,98,-99.99,,,0.20,Acu-Link.com,2013-09-02 22:53:00,
2013-09-02 19:08:00,62.6,62.0,29.76,East,90,0.0,-999.0,98,-99.99,,,0.20,Acu-Link.com,2013-09-02 23:08:00,
2013-09-02 19:23:00,62.4,61.8,29.76,ENE,67,0.0,-999.0,98,-99.99,,,0.21,Acu-Link.com,2013-09-02 23:23:00,
2013-09-02 19:39:00,62.1,61.5,29.71,ENE,67,2.2,-999.0,98,-99.99,,,0.21,Acu-Link.com,2013-09-02 23:39:00,
2013-09-02 19:54:00,62.1,61.5,29.73,NE,45,0.0,-999.0,98,-99.99,,,0.22,Acu-Link.com,2013-09-02 23:54:00,
2013-09-02 20:09:00,62.1,61.5,29.73,East,90,0.0,-999.0,98,-99.99,,,0.22,Acu-Link.com,2013-09-03 00:09:00,
2013-09-02 20:24:00,61.9,61.3,29.72,ENE,67,0.0,-999.0,98,-99.99,,,0.22,Acu-Link.com,2013-09-03 00:24:00,
2013-09-02 20:39:00,61.7,61.1,29.72,South,180,0.0,-999.0,98,-99.99,,,0.24,Acu-Link.com,2013-09-03 00:39:00,
2013-09-02 20:55:00,61.7,61.1,29.72,SW,225,0.0,-999.0,98,-99.99,,,0.24,Acu-Link.com,2013-09-03 00:55:00,
2013-09-02 21:10:00,61.7,61.1,29.73,North,0,0.0,-999.0,98,-99.99,,,0.25,Acu-Link.com,2013-09-03 01:10:00,
2013-09-02 21:25:00,61.7,61.1,29.74,East,90,0.0,-999.0,98,-99.99,,,0.25,Acu-Link.com,2013-09-03 01:25:00,
2013-09-02 21:40:00,61.7,61.1,29.74,ENE,67,0.0,-999.0,98,-99.99,,,0.25,Acu-Link.com,2013-09-03 01:40:00,
2013-09-02 21:55:00,61.5,60.9,29.74,NNW,337,0.0,-999.0,98,-99.99,,,0.25,Acu-Link.com,2013-09-03 01:55:00,
2013-09-02 22:21:00,61.5,60.9,29.75,North,0,0.0,-999.0,98,-99.99,,,0.25,Acu-Link.com,2013-09-03 02:21:00,
2013-09-02 22:36:00,61.5,60.9,29.74,North,0,0.0,-999.0,98,-99.99,,,0.43,Acu-Link.com,2013-09-03 02:36:00,
2013-09-02 23:20:00,61.3,60.8,29.73,ENE,67,0.0,-999.0,98,-99.99,,,0.43,Acu-Link.com,2013-09-03 03:20:00,
2013-09-02 23:35:00,61.3,60.8,29.73,ESE,112,0.0,-999.0,98,-99.99,,,0.43,Acu-Link.com,2013-09-03 03:35:00,
2013-09-02 23:51:00,61.3,60.8,29.73,East,90,0.0,-999.0,98,-99.99,,,0.43,Acu-Link.com,2013-09-03 03:51:00,